Location: Oberwangen
(47.4286°N, 8.9679°E)
Time: 23:36:33
(UTC+00:00)

Cosmos 389 Rocket - Pass Details

Date: 20 June 2021
Orbit: 440 x 471 km, 81.1° (Epoch: 23 July)

Event Time Altitude Azimuth Distance (km) Brightness Sun altitude
Rises 21:16:51 0° 353° (N) 2,448 7.5 -13.4°
Reaches altitude 10° 21:18:58 10° 360° (N) 1,575 6.1 -13.6°
Maximum altitude 21:22:18 47° 75° (ENE) 604 2.9 -13.9°
Enters shadow 21:23:52 26° 135° (SE) 912 3.4 -14.0°
